Probability
0 0 0 0 0 0 0 0 0 0 0 0 0 0 0 0 0 0 0 0 0 0 0 0 0 0 0 0 0 0 0 0 0 0 0 0 0 0 0 0 0 0 0 0
0 0 0 0 0 0 0 0 0 0 0 0 0 0 0 0 0 0 0 0 0 0 0 0 0 0 0 0 0 0 0 0 0 0 0 0 0 0 0 0 0 0 0 0
0 0 0 0 0 0 0 0 0 0 0 0 0 0 0 0 0 0 0 0 0 0 0 0 0 0 0 0 0 0 0 0 0 0 0 0 0 0 0 0 0 0 0 0
0 0 0 0 0 0 0 0 0 0 0 0 0 0 0 0 0 0 0 0 0 0 0 0 0 0 0 0 0 0 0 0 0 0 0 0 0 0 0 0 0 0 0 0
0 0 0 0 0 0 0 0 0 0 0 0 0 0 0 0 0 0 0 0 0 0 0 0 0 0 0 0 0 0 0 0 0 0 0 0 0 0 0 0 0 0 0 0
0 0 0 0 0 0 0 0 0 0 0 0 0 0 0 0 0 0 0 0 0 0 0 0 0 0 0 0 0 0 0 0 0 0 0 0 0 0 0 0 0 0 0 0
0 0 0 0 0 0 0 0 0 0 0 0 0 0 0 0 0 0 0 0 0 0 0 0 0 0 0 0 0 0 0 0 0 0 0 0 0 0 0 0 0 0 0 0
0 0 0 0 0 0 0 0 0 0 0 0 0 0 0 0 0 0 0 0 0 0 0 0 0 0 0 0 0 0 0 0 0 0 0 0 0 0 0 0 0 0 0 0
0 0 0 0 0 0 0 0 0 0 0 0 0 0 0 0 0 0 0 0 0 0 0 0 0 0 0 0 0 0 0 0 0 0 0 0 0 0 0 0 0 0 0 0
0 0 0 0 0 0 0 0 0 0 0 0 0 0 0 0 0 0 0 0 0 0 0 0 0 0 0 0 0 0 0 0 0 0 0 0 0 0 0 0 0 0 0 0
0 0 0 0 0 0 0 0 0 0 0 0 0 0 0 0 0 0 0 0 0 0 0 0 0 0 0 0 0 0 0 0 0 0 0 0 0 0 0 0 0 0 0 0
0 0 0 0 0 0 0 0 0 0 0 0 0 0 0 0 0 0 0 0 0 0 0 0 0 0 0 0 0 0 0 0 0 0 0 0 0 0 0 0 0 0 0 0
0 0 0 0 0 0 0 0 0 0 0 0 0 0 0 0 0 0 0 0 0 0 0 0 0 0 0 0 0 0 0 0 0 0 0 0 0 0 0 0 0 0 0 0
0 0 0 0 0 0 0 0 0 0 0 0 0 0 0 0 0 0 0 0 0 0 0 0 0 0 0 0 0 0 0 0 0 0 0 0 0 0 0 0 0 0 0 0
0 0 0 0 0 0 0 0 0 0 0 0 0 0 0 0 0 0 0 0 0 0 0 0 0 0 0 0 0 0 0 0 1 1 1 1 0 0 0 0 0 0 0 0
0 0 0 0 0 0 0 0 0 0 0 0 0 0 0 0 0 0 0 0 0 0 0 0 0 0 0 0 0 0 0 1 2 2 2 1 0 0 0 0 0 0 0 0
0 0 0 0 0 0 0 0 0 0 0 0 0 0 0 0 0 0 0 0 0 0 0 0 0 0 0 0 0 0 0 1 3 3 2 1 0 0 0 0 0 0 0 0
0 0 0 0 0 0 0 0 0 0 0 0 0 0 0 0 0 0 0 0 0 0 0 0 0 0 0 0 0 0 1 2 3 3 1 0 0 0 0 0 0 0 0 0
0 0 0 0 0 0 0 0 0 0 0 0 0 0 0 0 0 0 0 0 0 0 0 0 0 0 0 0 0 1 2 3 3 2 1 0 0 0 0 0 0 0 0 0
0 0 0 0 0 0 0 0 0 0 0 0 0 0 0 0 0 0 0 0 0 0 0 0 0 0 0 0 0 1 2 2 1 1 0 0 0 0 0 0 0 0 0 0
0 0 0 0 0 0 0 0 0 0 0 0 0 0 0 0 0 0 0 0 0 0 0 0 0 0 0 0 0 1 2 1 0 0 0 0 0 0 0 0 0 0 0 0
0 0 0 0 0 0 0 0 0 0 0 0 0 0 0 0 0 0 0 0 0 0 0 0 0 0 0 0 0 1 1 1 0 0 0 0 0 0 0 0 0 0 0 0
0 0 0 0 0 0 0 0 0 0 0 0 0 0 0 0 0 0 0 0 0 0 0 0 0 0 0 0 0 0 0 0 0 0 0 0 0 0 0 0 0 0 0 0
0 0 0 0 0 0 0 0 0 0 0 0 0 0 0 0 0 0 0 0 0 0 0 0 0 0 0 0 0 0 0 0 0 0 0 0 0 0 0 0 0 0 0 0
0 0 0 0 0 0 0 0 0 0 0 0 0 0 0 0 0 0 0 0 0 0 0 0 0 0 0 0 0 0 0 0 0 0 0 0 0 0 0 0 0 0 0 0
0 0 0 0 0 0 0 0 0 0 0 0 0 0 0 0 0 0 0 0 0 0 0 0 0 0 0 0 0 0 0 0 0 0 0 0 0 0 0 0 0 0 0 0
0 0 0 0 0 0 0 0 0 0 0 0 0 0 0 0 0 0 0 0 0 0 0 0 0 0 0 0 0 0 0 0 0 0 0 0 0 0 0 0 0 0 0 0
Wind_Speed
12 11 10 11 11 11 12 12 13 13 12 10 8 7 6 4 3 4 5 6 8 9 9 9 9 9 9 8 8 8 8 7 6 6 6 5 4 4 3 2 2 2 1 1
14 14 14 14 14 14 14 13 13 12 10 8 8 6 6 6 5 3 4 5 7 9 10 11 11 10 9 9 9 9 9 8 7 6 6 5 4 4 3 2 2 2 2 2
13 14 16 14 12 11 9 7 8 8 7 7 7 7 6 5 5 4 3 4 5 7 9 11 12 12 10 10 9 9 9 8 8 7 6 6 6 5 4 4 4 4 3 3
11 14 16 9 6 4 5 6 6 6 6 7 7 6 3 4 5 5 3 3 4 5 6 9 10 11 11 10 10 10 9 9 8 8 7 6 5 5 4 4 4 4 4 4
10 12 13 10 8 7 6 5 5 6 6 8 9 7 4 7 7 6 4 3 3 4 5 7 9 10 11 11 11 10 9 9 9 9 8 7 7 6 5 4 3 3 3 4
9 12 12 7 7 6 5 3 7 7 8 9 9 6 6 10 9 8 5 4 3 2 3 5 6 8 10 11 11 10 10 9 9 9 9 8 7 6 4 4 4 3 3 3
10 12 9 6 6 4 3 5 9 10 10 11 9 8 9 11 9 8 6 5 3 2 3 3 4 6 9 9 10 10 9 9 8 8 9 8 6 5 4 4 4 3 3 3
9 11 5 8 7 6 7 8 9 10 10 11 11 11 11 11 10 8 7 5 4 3 3 2 3 5 7 8 8 9 9 9 8 8 8 7 6 5 4 4 3 4 3 3
7 6 5 6 6 7 8 9 10 10 10 11 12 11 12 11 10 9 7 5 4 3 3 3 3 4 6 6 7 9 9 9 8 8 7 7 7 6 4 4 3 3 2 2
11 9 10 10 8 8 10 11 11 10 11 11 12 12 12 11 10 9 7 6 4 4 4 4 4 4 4 5 7 9 9 9 8 8 7 6 5 4 4 3 3 2 2 2
16 14 12 9 9 10 11 12 13 12 12 12 12 12 12 11 10 9 8 7 5 5 5 5 5 4 5 5 7 9 10 9 9 7 7 6 5 3 4 2 3 3 2 2
13 11 11 11 13 13 13 13 13 13 13 12 12 12 12 11 10 9 9 8 7 6 6 6 6 5 6 6 8 9 9 10 8 7 7 7 7 5 8 6 8 9 8 6
12 11 12 13 13 13 13 14 14 13 13 13 12 11 12 11 10 9 10 10 9 8 7 7 6 6 6 7 8 9 9 9 8 8 8 9 9 8 6 5 7 8 9 9
11 11 13 12 12 12 13 14 14 13 13 12 11 11 11 11 11 11 10 10 10 10 8 8 7 7 6 7 8 8 8 10 9 8 8 9 9 9 8 8 6 4 4 7
10 10 11 11 11 11 12 12 13 12 12 12 11 11 11 11 11 11 11 11 11 11 9 8 8 7 5 6 8 8 7 6 7 8 8 8 8 8 8 9 8 7 5 4
10 10 11 11 11 11 12 12 12 12 12 12 12 12 12 12 12 11 11 10 10 11 10 9 8 7 5 5 6 6 6 10 10 8 8 8 8 8 8 8 9 9 8 7
8 9 10 10 11 11 11 11 11 11 12 12 12 13 13 13 12 11 11 10 10 11 10 9 8 6 6 5 5 4 5 8 12 9 8 8 8 8 8 8 8 7 7 8
7 8 9 10 10 11 11 11 11 12 11 12 13 13 13 13 12 12 12 12 12 11 9 8 7 6 6 6 5 4 5 6 7 7 7 7 8 7 8 8 8 9 7 7
7 8 9 10 10 10 10 11 11 11 12 12 12 12 12 12 12 12 12 12 12 11 9 8 8 7 7 7 5 4 5 7 7 6 6 9 8 7 7 8 8 9 9 8
8 8 9 10 10 10 10 10 11 11 11 11 12 12 12 12 12 12 11 11 9 7 8 9 8 7 7 6 5 4 5 7 7 7 7 7 7 8 8 8 9 9 9 8
8 9 9 10 10 10 11 11 11 11 10 11 11 12 12 12 12 12 10 10 9 7 8 9 6 6 4 4 5 3 4 6 7 7 8 8 8 8 8 9 9 9 8 8
9 9 10 10 11 11 11 11 12 12 11 10 11 11 12 11 11 11 11 8 8 9 7 5 5 5 4 4 3 3 3 4 5 6 7 7 7 8 8 9 8 8 8 8
10 10 11 11 12 13 13 13 13 12 10 10 10 10 11 10 8 8 9 7 6 8 6 5 6 6 5 3 3 3 3 4 4 5 6 6 7 7 7 8 8 7 7 7
12 12 12 13 13 14 14 13 11 10 10 10 9 9 9 8 7 6 7 9 9 8 6 5 5 5 4 3 2 2 3 3 4 5 6 6 6 6 7 7 7 7 7 8
12 13 13 13 13 11 12 12 11 10 9 8 9 9 8 6 6 6 6 7 8 8 5 4 5 4 3 2 2 3 3 3 4 5 6 6 6 7 7 7 7 7 7 7
12 10 10 11 10 8 8 8 7 7 7 7 7 6 6 5 6 6 5 5 7 6 4 2 2 3 2 2 2 3 3 5 6 6 6 7 8 8 7 8 9 7 7 7
12 10 8 8 8 7 7 7 7 7 6 6 7 6 6 6 5 5 5 5 4 3 2 1 2 2 2 1 2 3 4 4 5 6 6 7 7 7 7 9 7 7 7 7
Wind_Direction
296 295 289 285 280 274 268 269 275 284 290 304 310 310 306 295 265 230 206 192 186 181 183 182 184 187 188 179 171 173 172 185 196 196 174 173 167 179 201 200 240 252 279 265
290 289 283 278 273 268 266 267 273 281 288 305 305 316 319 313 302 266 229 212 201 191 188 187 189 190 188 179 175 176 179 185 188 189 169 166 171 184 191 194 241 261 265 265
289 296 294 280 278 275 278 288 294 295 307 323 324 322 320 322 317 303 266 240 217 207 195 192 193 190 187 181 176 181 184 181 176 180 170 171 185 185 187 202 217 226 242 255
286 289 280 285 303 306 292 293 301 308 330 334 325 314 322 340 330 316 293 258 232 222 205 193 193 185 180 175 177 183 185 180 173 175 175 175 184 188 194 215 212 205 224 242
274 277 277 288 303 306 297 306 336 335 347 349 338 324 10 14 358 341 327 302 254 235 216 200 195 183 175 176 180 183 184 179 174 174 174 177 184 190 201 211 216 216 223 229
264 273 280 305 345 358 323 306 11 10 5 355 353 344 352 357 350 341 337 329 303 270 241 212 198 178 175 178 181 184 180 179 176 173 171 177 185 191 194 195 205 214 231 229
258 267 274 341 357 339 300 6 19 15 8 4 357 346 338 341 342 339 336 328 319 288 270 234 196 175 177 182 185 180 170 172 171 166 167 173 177 179 185 193 196 207 225 220
270 269 282 30 13 12 7 5 9 7 2 354 344 337 337 337 334 331 328 323 316 297 286 268 207 179 184 190 179 161 158 163 167 164 171 172 167 176 186 184 191 206 217 213
299 310 351 18 8 8 359 350 355 353 349 342 334 330 330 328 327 324 321 315 307 288 275 265 235 197 194 188 163 152 154 162 166 166 166 161 163 174 181 182 189 198 189 182
299 298 318 329 343 356 354 345 342 341 338 334 327 324 323 322 321 320 320 318 301 285 268 259 247 223 204 175 158 156 162 167 169 172 166 159 156 162 163 169 176 178 162 148
294 300 308 316 339 344 340 336 331 330 327 324 321 319 318 317 318 319 315 311 301 281 265 257 249 228 206 185 174 174 173 174 177 173 164 155 133 116 141 116 138 143 127 110
285 307 310 318 332 333 327 324 323 321 318 316 315 315 317 315 316 315 314 311 305 293 275 260 250 238 211 193 187 188 185 181 177 171 161 150 138 103 64 98 100 97 99 110
296 308 308 311 317 321 318 316 316 313 311 311 314 316 314 312 313 314 314 313 307 299 289 276 256 242 220 197 195 199 194 181 175 171 165 160 157 152 140 95 80 90 100 107
303 307 302 307 312 316 313 312 311 309 309 312 315 315 313 314 314 314 312 311 307 302 293 286 272 251 227 204 200 205 200 187 175 171 167 167 167 165 161 159 156 142 120 131
301 303 303 308 307 308 310 310 309 310 314 317 316 314 316 315 312 310 309 308 308 304 298 290 282 267 239 212 203 205 201 186 175 169 167 168 166 166 165 166 160 152 146 152
305 306 306 305 305 307 310 311 311 312 315 317 318 319 317 313 309 306 306 306 304 301 300 294 286 281 260 223 207 205 204 188 173 166 167 167 166 167 167 164 160 159 163 163
295 297 300 301 304 307 309 311 312 314 315 315 315 313 311 308 307 308 308 305 301 297 296 295 293 294 281 243 214 203 192 181 174 172 173 172 171 170 167 163 161 157 153 155
301 302 303 304 307 307 307 309 312 313 311 310 310 310 309 310 309 309 310 310 306 300 297 298 301 300 288 264 231 202 185 178 177 178 173 170 169 167 163 161 155 144 139 145
295 296 298 300 304 304 303 306 309 309 310 311 310 309 307 307 306 307 308 306 303 300 301 304 304 300 288 276 254 206 186 180 180 177 168 165 165 162 159 156 150 147 148 152
291 294 295 297 299 301 303 305 304 303 306 310 308 306 305 306 306 304 301 297 292 293 300 302 298 289 278 273 260 220 192 183 179 173 165 165 166 161 157 153 150 150 152 155
291 290 292 296 300 300 299 299 300 300 303 304 303 303 302 302 303 302 299 295 295 300 300 292 285 282 273 272 264 235 199 186 179 172 167 166 164 159 156 153 151 151 152 151
291 291 293 297 298 297 296 296 297 296 295 294 296 298 300 299 300 300 294 290 291 296 296 285 283 282 279 271 260 233 200 185 175 164 162 162 160 158 156 153 151 149 147 144
285 288 290 291 293 295 294 293 292 294 295 295 296 297 296 295 294 293 295 298 299 300 293 280 282 280 271 257 247 228 197 180 169 158 154 153 153 151 149 146 143 140 138 137
282 284 288 290 291 290 290 292 294 294 294 292 290 291 291 290 289 287 291 297 304 302 292 281 275 264 254 246 225 206 189 169 157 149 143 139 139 139 138 138 135 133 132 131
285 285 285 287 288 287 288 292 294 292 290 288 289 291 287 281 283 289 291 294 299 297 292 281 268 251 249 239 207 184 167 155 148 142 139 135 134 134 133 131 130 129 131 132
283 284 283 283 284 281 284 285 284 284 285 287 288 289 288 284 285 286 285 287 288 284 286 284 253 230 237 223 190 168 158 153 148 142 139 136 135 134 134 135 135 135 134 132
282 280 277 278 279 279 282 284 284 285 286 287 291 293 294 293 291 293 294 288 279 269 264 250 242 239 228 192 173 166 155 144 141 140 140 137 136 136 138 138 136 133 131 131